Location: Owl River
(54.8872°N, 111.8867°W)
Time: 13:24:59
(UTC+00:00)

BlueWalker 3 - Visible Passes

Search period start: 18 April 2024 00:00
Search period end: 28 April 2024 00:00
Orbit: 485 x 495 km, 53.2° (Epoch: 17 April)

Date Brightness Start Highest point End Pass type
(mag) Time Alt. Az. Time Alt. Az. Time Alt. Az.
18 Apr 3.9 03:17:07 10° SSE 03:18:26 11° SE 03:19:46 10° ESE visible
18 Apr 2.5 04:52:19 10° SW 04:55:28 36° S 04:55:28 36° S visible
19 Apr 2.4 04:27:45 10° SW 04:31:16 36° SSE 04:33:04 23° ESE visible
19 Apr 3.1 06:05:25 10° WSW 06:07:33 31° WSW 06:07:33 31° WSW visible
20 Apr 2.5 04:03:09 10° SW 04:06:39 35° SSE 04:10:06 10° E visible
20 Apr 1.8 05:40:48 10° WSW 05:44:33 67° S 05:44:33 67° S visible
20 Apr 4.6 07:18:56 10° W 07:19:00 10° W 07:19:00 10° W visible
21 Apr 2.6 03:38:32 10° SW 03:42:01 34° SSE 03:45:31 10° E visible
21 Apr 1.8 05:16:09 10° WSW 05:19:57 67° S 05:21:11 39° ESE visible
21 Apr 3.8 06:54:17 10° W 06:55:36 20° W 06:55:36 20° W visible
22 Apr 1.8 04:51:29 10° WSW 04:55:17 66° S 04:57:34 22° E visible
22 Apr 3.0 06:29:36 10° W 06:32:00 35° WSW 06:32:00 35° WSW visible
23 Apr 1.9 04:26:47 10° WSW 04:30:34 66° S 04:33:48 14° E visible
23 Apr 2.1 06:04:54 10° W 06:08:13 54° SW 06:08:13 54° SW visible
24 Apr 1.9 04:02:03 10° WSW 04:05:51 65° S 04:09:39 10° E visible
24 Apr 1.9 05:40:10 10° W 05:43:57 60° SSW 05:44:21 56° SSE visible
24 Apr 4.5 07:18:32 10° W 07:18:45 11° W 07:18:45 11° W visible
25 Apr 1.9 03:37:18 10° WSW 03:41:05 65° S 03:44:53 10° E visible
25 Apr 1.9 05:15:24 10° W 05:19:11 61° S 05:20:25 38° SE visible
25 Apr 4.1 06:53:45 10° W 06:54:49 16° W 06:54:49 16° W visible
26 Apr 1.9 04:50:37 10° W 04:54:24 62° S 04:56:25 25° ESE visible
26 Apr 3.6 06:28:57 10° W 06:30:49 22° WSW 06:30:49 22° WSW visible
27 Apr 2.0 04:25:48 10° W 04:29:35 63° S 04:32:23 17° ESE visible
27 Apr 3.2 06:04:07 10° W 06:06:47 27° SW 06:06:47 27° SW visible
